CXA8115 ZUDJ-ZBYN

Flight info

Callsign CXA8115
Flight time N/A
Altitude 32100
Route EPGAL7/19 EPGAL A581 BODUV W102 EMVIL W284 UPSIK W4 LIMGI W175 BISAL
Aircraft A20N/M-SDE2E3FGHIRWXY/LB1

Departure

Time N/A
Airport Tongren Dejiang Airport (Under Construction) (ZUDJ)

Arrival

Time 2026-04-26 08:30
Airport Taiyuan Wusu International Airport (ZBYN)
Time Latitude Longitude Altitude Speed Heading
2026-04-26 07:36 32.38840 109.87145 32998 ft 482 kts 19°
2026-04-26 07:37 32.41861 109.88833 33002 ft 482 kts 19°
2026-04-26 07:37 32.47931 109.92217 33015 ft 481 kts 19°
2026-04-26 07:38 32.54011 109.95605 33014 ft 480 kts 18°
2026-04-26 07:38 32.60073 109.98979 33011 ft 479 kts 19°
2026-04-26 07:39 32.66154 110.02367 33003 ft 480 kts 19°
2026-04-26 07:39 32.72217 110.05757 32987 ft 479 kts 19°
2026-04-26 07:40 32.78282 110.09148 32976 ft 480 kts 19°
2026-04-26 07:40 32.84353 110.12549 32971 ft 480 kts 18°
2026-04-26 07:41 32.90406 110.15945 32961 ft 478 kts 18°
2026-04-26 07:41 32.96424 110.19328 32965 ft 477 kts 18°
2026-04-26 07:42 33.02445 110.22716 32952 ft 476 kts 18°
2026-04-26 07:42 33.08460 110.26104 32968 ft 476 kts 18°
2026-04-26 07:43 33.13200 110.28774 32977 ft 476 kts 18°
2026-04-26 07:43 33.19160 110.32131 32991 ft 475 kts 18°
2026-04-26 07:44 33.25190 110.35540 33019 ft 474 kts 18°
2026-04-26 07:44 33.31189 110.38944 33022 ft 473 kts 18°
2026-04-26 07:45 33.37150 110.42328 33021 ft 473 kts 18°
2026-04-26 07:45 33.43074 110.45700 33009 ft 472 kts 18°
2026-04-26 07:46 33.49028 110.49094 32995 ft 472 kts 18°
2026-04-26 07:46 33.54969 110.52477 32999 ft 470 kts 18°
2026-04-26 07:47 33.60938 110.55879 33014 ft 469 kts 18°
2026-04-26 07:47 33.66871 110.59271 33029 ft 469 kts 18°
2026-04-26 07:48 33.72751 110.62641 33051 ft 469 kts 18°
2026-04-26 07:48 33.77924 110.65610 33064 ft 467 kts 19°
2026-04-26 07:49 33.83870 110.69057 33062 ft 469 kts 19°
2026-04-26 07:49 33.89753 110.72465 33043 ft 467 kts 18°
2026-04-26 07:50 33.98567 110.77554 33020 ft 465 kts 18°
2026-04-26 07:50 34.04443 110.80947 33004 ft 465 kts 18°
2026-04-26 07:51 34.09981 110.84150 33004 ft 465 kts 18°
2026-04-26 07:51 34.15211 110.87174 33002 ft 464 kts 18°
2026-04-26 07:52 34.20691 110.90344 33010 ft 465 kts 18°
2026-04-26 07:52 34.26688 110.93831 33022 ft 463 kts 18°
2026-04-26 07:53 34.32554 110.97244 33017 ft 463 kts 18°
2026-04-26 07:53 34.38461 111.00263 33008 ft 456 kts 11°
2026-04-26 07:54 34.44505 111.02262 33001 ft 446 kts
2026-04-26 07:54 34.50637 111.03252 32996 ft 439 kts 356°
2026-04-26 07:55 34.56762 111.03405 32989 ft 435 kts 352°
2026-04-26 07:55 34.62839 111.03391 32973 ft 436 kts 353°
2026-04-26 07:56 34.68921 111.03400 32962 ft 436 kts 353°
2026-04-26 07:56 34.74988 111.03400 32947 ft 435 kts 352°
2026-04-26 07:57 34.81050 111.03401 32939 ft 435 kts 353°
2026-04-26 07:57 34.87165 111.03404 32930 ft 435 kts 352°
2026-04-26 07:58 34.93224 111.03411 32920 ft 436 kts 353°
2026-04-26 07:58 34.99334 111.03408 32915 ft 443 kts 352°
2026-04-26 07:59 35.05579 111.03682 32918 ft 450 kts 358°
2026-04-26 07:59 35.10875 111.04667 32932 ft 456 kts
2026-04-26 08:00 35.17106 111.06782 32933 ft 466 kts 11°
2026-04-26 08:00 35.22917 111.09776 32944 ft 472 kts 17°
2026-04-26 08:01 35.28860 111.13273 32943 ft 472 kts 17°
2026-04-26 08:01 35.34803 111.16760 32958 ft 470 kts 17°
2026-04-26 08:02 35.40713 111.20222 32969 ft 471 kts 17°
2026-04-26 08:02 35.46640 111.23699 32990 ft 470 kts 17°
2026-04-26 08:03 35.52549 111.27174 33001 ft 468 kts 17°
2026-04-26 08:03 35.58434 111.30639 32998 ft 470 kts 17°
2026-04-26 08:04 35.64360 111.34136 32986 ft 469 kts 17°
2026-04-26 08:04 35.70273 111.37631 32985 ft 468 kts 16°
2026-04-26 08:05 35.76185 111.41129 32977 ft 468 kts 16°
2026-04-26 08:05 35.82047 111.44604 32973 ft 467 kts 17°
2026-04-26 08:06 35.87937 111.48101 32973 ft 469 kts 16°
2026-04-26 08:06 35.93852 111.51619 32977 ft 467 kts 17°
2026-04-26 08:07 35.99704 111.55108 32977 ft 467 kts 16°
2026-04-26 08:07 36.05595 111.58623 32986 ft 467 kts 16°
2026-04-26 08:08 36.10894 111.61787 32986 ft 468 kts 16°
2026-04-26 08:08 36.16781 111.65303 32989 ft 467 kts 17°
2026-04-26 08:09 36.22245 111.68600 32989 ft 471 kts 17°
2026-04-26 08:09 36.27782 111.71946 32987 ft 469 kts 17°
2026-04-26 08:10 36.33713 111.75523 32996 ft 469 kts 17°
2026-04-26 08:10 36.39632 111.79087 33007 ft 469 kts 17°
2026-04-26 08:11 36.42559 111.80862 32738 ft 463 kts 16°
2026-04-26 08:11 36.45458 111.82615 32476 ft 459 kts 16°
2026-04-26 08:11 36.48345 111.84361 32088 ft 457 kts 16°
2026-04-26 08:11 36.51207 111.86092 31533 ft 454 kts 16°
2026-04-26 08:12 36.54024 111.87793 30862 ft 454 kts 16°
2026-04-26 08:12 36.56866 111.89510 30132 ft 455 kts 16°
2026-04-26 08:12 36.59719 111.91238 29364 ft 456 kts 16°
2026-04-26 08:12 36.62608 111.92987 28491 ft 458 kts 17°
2026-04-26 08:13 36.65465 111.94723 27672 ft 459 kts 17°
2026-04-26 08:13 36.68369 111.96501 26856 ft 459 kts 18°
2026-04-26 08:13 36.71240 111.98288 26061 ft 463 kts 19°
2026-04-26 08:13 36.74148 112.00104 25233 ft 467 kts 19°
2026-04-26 08:14 36.77032 112.01913 24358 ft 468 kts 19°
2026-04-26 08:14 36.79956 112.03747 23291 ft 471 kts 20°
2026-04-26 08:14 36.82883 112.05582 22455 ft 468 kts 20°
2026-04-26 08:14 36.85774 112.07402 21809 ft 460 kts 20°
2026-04-26 08:15 36.88641 112.09209 21178 ft 453 kts 21°
2026-04-26 08:15 36.91450 112.10978 20580 ft 446 kts 21°
2026-04-26 08:15 36.94204 112.12711 19979 ft 440 kts 21°
2026-04-26 08:15 36.96910 112.14414 19371 ft 435 kts 21°
2026-04-26 08:16 36.99633 112.16129 18766 ft 430 kts 21°
2026-04-26 08:16 37.02274 112.17792 18187 ft 425 kts 22°
2026-04-26 08:16 37.04932 112.19466 17580 ft 421 kts 22°
2026-04-26 08:16 37.07499 112.21124 16962 ft 418 kts 24°
2026-04-26 08:17 37.09972 112.22918 16338 ft 417 kts 27°
2026-04-26 08:17 37.12013 112.24575 15806 ft 416 kts 30°
2026-04-26 08:17 37.14191 112.26522 15207 ft 415 kts 32°
2026-04-26 08:17 37.16436 112.28610 14577 ft 413 kts 33°
2026-04-26 08:18 37.18670 112.30713 13942 ft 412 kts 33°
2026-04-26 08:18 37.20990 112.32900 13430 ft 405 kts 33°
2026-04-26 08:18 37.23222 112.35003 13148 ft 391 kts 33°
2026-04-26 08:18 37.25371 112.37025 12917 ft 378 kts 33°
2026-04-26 08:19 37.27451 112.38976 12725 ft 364 kts 33°
2026-04-26 08:19 37.29443 112.40845 12571 ft 351 kts 33°
2026-04-26 08:19 37.31361 112.42645 12427 ft 338 kts 33°
2026-04-26 08:19 37.33235 112.44405 12251 ft 321 kts 33°
2026-04-26 08:20 37.34965 112.46036 12192 ft 298 kts 33°
2026-04-26 08:20 37.36587 112.47565 12123 ft 283 kts 33°
2026-04-26 08:20 37.38153 112.49038 12049 ft 270 kts 33°
2026-04-26 08:20 37.39637 112.50436 11997 ft 261 kts 33°
2026-04-26 08:21 37.41095 112.51801 11954 ft 261 kts 32°
2026-04-26 08:21 37.42487 112.53258 11885 ft 264 kts 45°
2026-04-26 08:21 37.43523 112.55239 11616 ft 270 kts 62°
2026-04-26 08:21 37.44264 112.57389 11391 ft 266 kts 64°
2026-04-26 08:22 37.44956 112.59538 11147 ft 262 kts 65°
2026-04-26 08:22 37.45638 112.61637 10907 ft 258 kts 64°
2026-04-26 08:22 37.46328 112.63722 10663 ft 254 kts 64°
2026-04-26 08:22 37.46864 112.65325 10443 ft 252 kts 65°
2026-04-26 08:23 37.47524 112.67292 10144 ft 249 kts 65°
2026-04-26 08:23 37.48196 112.69295 9716 ft 246 kts 65°
2026-04-26 08:23 37.48882 112.71330 9231 ft 244 kts 65°
2026-04-26 08:23 37.49549 112.73301 8859 ft 243 kts 65°
2026-04-26 08:24 37.50198 112.75214 8570 ft 241 kts 65°
2026-04-26 08:24 37.50854 112.77147 8293 ft 238 kts 64°
2026-04-26 08:24 37.51751 112.78854 7976 ft 232 kts 42°
2026-04-26 08:24 37.52982 112.80125 7571 ft 228 kts 36°
2026-04-26 08:25 37.54271 112.81310 7091 ft 228 kts 36°
2026-04-26 08:25 37.55545 112.82483 6630 ft 226 kts 37°
2026-04-26 08:25 37.56800 112.83652 6284 ft 224 kts 38°
2026-04-26 08:25 37.58061 112.84827 6007 ft 222 kts 33°
2026-04-26 08:26 37.59513 112.85403 5963 ft 222 kts 357°
2026-04-26 08:26 37.60964 112.84789 5700 ft 225 kts 322°
2026-04-26 08:26 37.62021 112.83351 5480 ft 223 kts 308°
2026-04-26 08:26 37.62921 112.81748 5383 ft 220 kts 306°
2026-04-26 08:27 37.63794 112.80173 5308 ft 213 kts 307°
2026-04-26 08:27 37.64643 112.78703 5049 ft 203 kts 308°
2026-04-26 08:27 37.65483 112.77290 4759 ft 194 kts 309°
2026-04-26 08:27 37.66288 112.75950 4495 ft 185 kts 309°
2026-04-26 08:28 37.67046 112.74689 4271 ft 174 kts 310°
2026-04-26 08:28 37.67758 112.73499 4050 ft 163 kts 309°
2026-04-26 08:28 37.68431 112.72378 3850 ft 159 kts 309°
2026-04-26 08:28 37.69095 112.71268 3652 ft 159 kts 310°
2026-04-26 08:29 37.69770 112.70138 3445 ft 159 kts 310°
2026-04-26 08:29 37.70439 112.69019 3256 ft 159 kts 310°
2026-04-26 08:29 37.71085 112.67934 3069 ft 159 kts 310°
2026-04-26 08:29 37.71716 112.66876 2865 ft 158 kts 311°
2026-04-26 08:30 37.72384 112.65759 2666 ft 158 kts 311°
2026-04-26 08:30 37.72990 112.64760 2592 ft 146 kts 309°
2026-04-26 08:30 37.73489 112.63927 2591 ft 83 kts 308°
2026-04-26 08:30 37.73716 112.63580 2591 ft 36 kts 321°
2026-04-26 08:31 37.73931 112.63435 2591 ft 33 kts 334°
2026-04-26 08:31 37.74102 112.63258 2591 ft 30 kts 307°
2026-04-26 08:31 37.74228 112.63049 2591 ft 29 kts 308°
2026-04-26 08:31 37.74309 112.62912 2591 ft 9 kts 306°
2026-04-26 08:32 37.74366 112.62886 2591 ft 9 kts 14°
2026-04-26 08:32 37.74426 112.62950 2591 ft 13 kts 51°
2026-04-26 08:32 37.74503 112.63039 2591 ft 16 kts 31°
2026-04-26 08:32 37.74601 112.63010 2591 ft 15 kts 322°
2026-04-26 08:33 37.74696 112.62924 2591 ft 17 kts 334°
2026-04-26 08:33 37.74806 112.62865 2591 ft 17 kts 337°
2026-04-26 08:33 37.74913 112.62804 2591 ft 14 kts 336°
2026-04-26 08:33 37.74986 112.62813 2591 ft 11 kts 36°
2026-04-26 08:34 37.75053 112.62876 2591 ft 12 kts 38°
2026-04-26 08:34 37.75132 112.62897 2591 ft 12 kts 352°
2026-04-26 08:34 37.75190 112.62888 2591 ft 7 kts 358°
2026-04-26 08:34 37.75237 112.62917 2591 ft 4 kts 38°
2026-04-26 08:35 37.75250 112.62929 2591 ft 1 kts 38°
2026-04-26 08:35 37.75258 112.62937 2591 ft 0 kts 38°
2026-04-26 08:35 37.75259 112.62939 2591 ft 0 kts 38°